This demonstration page uses our WeatherBlox Daily Observations layout. Learn more.

Left ArrowRight Arrow

Hourly Observations for December 12, 2019

Temp ( °F °C ) Dew Point ( °F °C ) Humidity (%) Winds ( mph kmh ) Pressure ( in mb ) Visibility ( mi km ) Precip ( " mm )
12:52 am 00:52 Cloudy 33 0.6 24 -4.4 70 70 SSE 10 17 30.07 1018 10 16 0.00 0.00
1:52 am 01:52 Mostly Cloudy 36 2.2 26 -3.3 67 67 S 13 20 30.05 1018 10 16 0.00 0.00
2:52 am 02:52 Mostly Cloudy 36 2.2 28 -2.2 73 73 SSE 14 22 30.04 1017 10 16 0.00 0.00
3:52 am 03:52 Cloudy 36 2.2 28 -2.2 73 73 SSE 15 24 30.01 1016 10 16 0.00 0.00
4:52 am 04:52 Cloudy 35 1.7 29 -1.7 78 78 SSE 14 22 29.99 1016 10 16 0.00 0.00
5:52 am 05:52 Mostly Cloudy 35 1.7 29 -1.7 78 78 SSE 9 15 29.99 1016 10 16 0.00 0.00
6:52 am 06:52 Mostly Cloudy 35 1.7 30 -1.1 82 82 SSE 8 13 30.00 1016 10 16 0.00 0.00
7:36 am 07:36 Mostly Cloudy 37 2.8 31 -0.6 79 79 S 8 13 30.02 1017 10 16 0.00 0.00
7:52 am 07:52 Cloudy 36 2.2 31 -0.6 82 82 S 3 6 30.01 1016 10 16 0.00 0.00
8:48 am 08:48 Mostly Cloudy 39 4 34 1 81 81 WSW 8 13 30.05 1017 10 16 0.00 0.00
8:52 am 08:52 Mostly Cloudy 40 4.4 33 0.6 77 77 WSW 9 15 30.03 1017 10 16 0.00 0.00
9:52 am 09:52 Mostly Cloudy 40 4.4 31 -0.6 70 70 WNW 9 15 30.06 1018 10 16 0.00 0.00
10:52 am 10:52 Mostly Cloudy 38 3.3 28 -2.2 68 68 N 13 20 30.07 1018 10 16 0.00 0.00
11:52 am 11:52 Mostly Cloudy 37 2.8 26 -3.3 65 65 N 14 22 30.07 1018 10 16 0.00 0.00
12:52 pm 12:52 Mostly Cloudy 34 1.1 25 -3.9 70 70 N 13 20 30.06 1018 10 16 0.00 0.00
1:52 pm 13:52 Mostly Cloudy 34 1.1 25 -3.9 70 70 N 10 17 30.05 1018 10 16 0.00 0.00
2:52 pm 14:52 Mostly Cloudy 33 0.6 25 -3.9 72 72 N 13 20 30.05 1018 10 16 0.00 0.00
3:52 pm 15:52 Mostly Cloudy 32 0 25 -3.9 75 75 N 13 20 30.06 1018 10 16 0.00 0.00
4:52 pm 16:52 Mostly Cloudy 30 -1.1 24 -4.4 79 79 N 10 17 30.08 1019 10 16 0.00 0.00
5:52 pm 17:52 Cloudy 29 -1.7 24 -4.4 82 82 N 9 15 30.09 1019 10 16 0.00 0.00
6:52 pm 18:52 Mostly Cloudy 27 -2.8 23 -5 85 85 NNW 9 15 30.09 1019 10 16 0.00 0.00
7:52 pm 19:52 Partly Cloudy 26 -3.3 23 -5 88 88 N 9 15 30.09 1019 10 16 0.00 0.00
8:52 pm 20:52 Mostly Clear with Mist and Fog 25 -3.9 22 -5.6 88 88 N 9 15 30.08 1019 6 10 0.00 0.00
9:40 pm 21:40 Mostly Cloudy with Mist and Fog 24 -4.4 21 -6.1 88 88 N 10 17 30.12 1020 6 10 0.00 0.00
9:52 pm 21:52 Cloudy with Mist and Fog 24 -4.4 21 -6.1 88 88 N 12 19 30.08 1019 5 8 0.00 0.00
10:52 pm 22:52 Cloudy with Mist and Fog 24 -4.4 20 -6.7 84 84 NE 8 13 30.08 1019 5 8 0.00 0.00
11:52 pm 23:52 Cloudy with Mist and Fog 23 -5 20 -6.7 88 88 NNE 6 9 30.06 1018 5 8 0.00 0.00

Powered by AerisWeather